Wind_Speed
18 18 19 20 21 21 22 22 21 21 20 20 21 21 22 22 21 21 21 21 20 21 21 22 22 22 22 22 22 22 22 22 22 22 22 22 22 22 22 22 22 22 22
19 19 20 21 21 22 23 23 22 21 21 21 21 22 22 22 22 21 21 21 21 21 22 22 23 23 23 23 23 23 23 23 22 22 22 23 23 23 22 22 22 22 22
20 21 21 22 23 23 23 23 22 22 23 22 22 22 23 22 23 23 23 22 22 22 22 23 23 23 23 24 24 24 24 24 23 23 24 23 24 23 23 23 23 23 23
21 22 22 23 23 23 24 23 23 24 23 24 24 24 24 24 24 24 24 24 24 23 23 23 23 23 24 24 24 24 24 25 24 24 24 24 24 24 24 24 24 24 25
23 23 24 24 24 24 25 25 25 24 24 24 25 25 25 25 25 25 26 25 25 24 23 24 24 24 24 24 25 25 24 25 25 24 25 26 26 26 25 25 25 26 26
24 24 25 25 25 25 25 25 25 25 24 25 25 25 26 26 26 26 26 26 25 25 24 24 25 26 26 26 26 25 25 26 26 26 26 27 27 27 26 26 27 27 27
26 26 26 26 26 26 25 26 26 26 25 25 26 26 26 26 26 26 26 26 25 25 25 25 26 27 27 27 27 27 26 26 27 27 27 27 27 28 28 28 28 28 28
27 27 26 26 26 27 27 26 26 27 27 26 26 25 25 26 26 26 26 26 26 26 26 26 26 27 28 29 29 29 28 28 28 28 29 29 29 29 29 29 29 29 28
27 27 26 26 26 26 26 25 26 27 27 27 26 26 25 26 26 25 26 26 26 27 27 27 27 27 28 30 30 30 29 30 30 30 30 31 31 30 30 30 30 29 29
27 27 27 26 26 26 26 26 27 27 28 27 26 25 26 26 26 26 26 26 27 27 28 28 28 28 28 29 30 30 31 30 30 30 31 31 31 31 31 30 30 29 29
27 27 27 26 26 26 26 26 26 27 27 26 25 25 25 25 26 26 26 27 28 29 29 30 30 30 29 29 30 31 31 31 31 31 31 31 31 31 31 31 31 30 30
26 27 26 26 26 26 27 26 26 26 26 25 25 25 26 26 27 27 27 28 29 29 29 30 31 31 31 30 30 30 31 31 31 31 31 31 32 32 32 32 32 32 31
26 26 26 26 26 27 27 26 26 27 27 26 26 26 26 26 27 27 28 29 29 29 29 29 30 30 31 31 31 31 31 31 32 32 31 31 32 32 32 32 32 32 32
25 26 26 27 27 27 27 26 26 27 27 27 27 27 26 27 27 27 28 28 28 29 29 30 30 30 30 31 32 32 32 31 32 32 32 32 32 33 33 33 33 32 32
25 25 26 26 26 26 27 27 27 27 27 27 27 26 26 26 26 27 26 26 27 27 28 28 29 29 30 30 31 32 32 32 32 33 33 33 33 34 34 34 33 33 33
24 25 25 26 26 26 26 26 26 27 27 26 26 26 26 26 26 26 25 25 25 26 27 27 28 28 29 29 30 31 32 32 32 33 33 33 33 33 33 33 34 34 34
24 25 25 26 26 26 26 27 27 26 26 26 27 27 27 27 26 25 24 24 25 26 26 27 27 27 28 29 30 30 30 31 32 32 32 33 33 33 33 34 34 35 35
25 25 25 25 25 26 26 27 27 27 27 26 26 26 26 26 25 25 25 25 25 25 25 25 26 28 29 30 30 30 30 30 31 32 32 33 33 33 33 34 35 35 35
25 25 26 25 26 26 26 26 26 26 26 26 26 26 26 25 25 25 25 25 25 25 25 26 27 28 29 30 30 30 30 30 31 31 32 33 34 34 34 34 34 34 35
26 26 26 26 26 26 26 26 26 25 25 26 26 26 26 25 24 25 25 26 25 25 26 27 27 28 29 29 29 29 30 31 31 31 32 32 33 33 34 34 34 34 34
26 26 26 26 26 26 26 26 26 26 26 26 26 26 26 25 25 26 26 27 27 27 27 27 28 29 30 29 29 30 30 30 31 31 32 32 32 31 32 32 33 34 34
26 26 26 27 27 27 27 27 27 27 27 27 27 27 26 26 26 27 27 27 27 28 28 28 28 29 29 30 30 30 30 30 30 30 30 31 31 31 31 32 33 33 34
27 27 28 28 28 28 28 28 28 28 28 28 28 28 28 28 28 28 28 28 28 28 29 29 30 29 29 29 30 30 30 30 29 29 29 30 31 31 32 33 33 34 35
28 28 28 28 29 29 29 29 29 29 29 29 28 28 28 28 28 29 29 29 29 29 29 29 30 30 29 28 28 29 30 30 30 30 30 30 31 32 32 33 33 34 34
29 29 29 29 29 29 30 30 30 30 30 29 29 29 29 29 29 29 29 29 29 29 30 30 30 30 29 30 30 30 30 31 31 32 32 32 31 32 32 32 33 33 33
29 29 29 29 29 30 30 30 30 30 30 30 30 30 29 29 29 29 29 28 29 29 29 29 29 28 28 29 30 30 31 31 32 31 32 32 32 32 32 32 32 32 33
Wind_Direction
287 289 290 291 291 290 290 289 288 289 289 286 283 282 282 280 278 277 277 275 273 272 270 268 268 267 267 268 267 267 266 263 261 260 261 261 262 262 261 260 260 261 262
288 289 290 290 290 291 291 288 288 289 287 285 284 282 281 279 277 277 277 276 275 273 270 269 267 266 266 266 266 266 265 264 262 261 262 261 262 261 262 263 263 264 264
289 288 288 289 291 293 293 290 288 288 286 284 283 281 281 279 276 276 277 276 275 273 271 268 267 265 265 264 264 264 264 264 263 262 261 262 261 261 262 263 264 265 265
289 290 289 290 292 292 293 290 289 289 287 283 281 280 279 278 276 274 274 275 274 274 271 269 268 266 265 264 264 264 263 262 263 264 262 264 263 262 263 263 264 264 265
289 291 291 290 291 291 291 288 289 290 289 285 282 279 278 278 277 274 274 274 274 274 271 270 269 267 265 265 264 264 263 264 264 265 265 264 264 264 264 264 264 265 265
288 290 291 292 291 291 290 288 289 289 289 287 284 281 278 278 277 275 274 273 272 272 271 269 268 267 265 265 264 263 264 264 264 264 267 266 264 264 264 265 265 265 265
287 289 289 291 292 291 288 288 289 289 289 288 284 282 278 277 276 276 276 273 271 271 272 270 267 266 265 264 264 265 266 265 266 265 266 266 265 264 264 265 267 266 264
287 288 288 289 291 291 289 288 289 290 291 289 284 281 279 279 278 277 276 274 271 270 271 270 269 268 265 264 264 264 265 265 266 266 266 267 266 265 265 266 266 265 263
286 287 286 287 289 291 290 289 290 291 291 290 284 281 280 279 278 277 275 274 272 270 269 270 270 269 267 266 265 265 265 265 265 265 266 266 266 265 266 266 266 264 263
285 286 286 287 288 289 289 290 290 290 291 289 285 282 282 281 280 278 277 276 274 272 270 270 270 269 267 266 266 266 266 267 266 264 265 266 265 265 266 266 265 264 264
284 285 286 286 288 288 289 291 291 292 292 290 288 285 283 281 280 279 278 277 275 273 271 270 269 268 268 268 268 267 267 266 266 265 266 266 265 266 266 266 266 265 265
283 285 287 287 288 289 290 291 292 292 292 291 289 287 285 284 282 279 277 277 276 274 273 271 269 268 268 269 269 269 268 268 268 267 267 267 266 265 265 266 266 266 265
284 286 288 290 291 291 291 291 292 293 292 291 289 288 287 285 283 281 278 278 276 274 273 272 270 268 268 269 270 270 270 270 269 269 268 268 266 265 264 265 266 265 265
285 286 289 291 292 293 293 292 292 293 293 292 291 289 288 286 284 283 281 279 276 275 273 272 272 270 269 269 269 270 270 271 271 270 270 268 267 265 265 265 266 265 265
287 288 289 291 292 292 293 294 294 293 293 293 292 291 290 288 287 285 283 280 279 277 275 273 272 271 271 271 270 269 270 271 271 271 270 270 268 267 265 264 264 265 266
289 289 290 291 292 292 293 295 296 295 294 293 292 292 292 292 290 288 285 282 281 279 277 275 274 273 273 274 273 271 270 271 271 271 271 269 268 267 265 264 264 264 265
291 291 291 291 291 292 293 294 295 295 295 294 293 293 293 292 291 289 287 285 283 282 279 277 276 275 274 274 275 275 274 273 272 272 271 270 268 267 265 264 263 264 265
292 292 292 291 292 293 294 296 296 296 295 295 295 295 294 293 291 289 288 287 286 284 282 281 279 277 277 276 276 275 276 275 273 272 272 272 270 269 267 265 264 263 264
293 293 292 292 293 293 295 297 297 297 296 296 296 295 293 292 290 289 288 287 287 285 283 283 281 279 279 278 276 276 276 275 275 275 274 273 271 269 268 265 264 264 265
292 292 292 292 293 292 293 295 295 296 296 297 297 296 294 292 291 289 289 287 285 285 284 282 281 281 281 279 277 277 277 276 277 277 276 275 273 270 268 265 264 265 265
289 290 291 292 294 293 293 294 295 296 297 297 297 297 296 293 291 290 290 289 286 285 285 284 282 282 281 278 278 278 279 278 278 278 278 277 274 272 270 268 267 267 266
288 289 290 291 292 292 292 293 294 295 296 296 297 297 296 295 293 291 290 289 287 286 285 285 284 283 281 279 278 280 280 279 279 278 278 277 275 273 273 272 271 271 269
288 290 291 291 292 291 291 291 292 293 294 295 295 295 294 294 294 293 291 289 287 286 286 286 284 281 280 279 279 279 280 281 280 279 278 276 275 275 274 273 272 272 270
288 290 290 292 292 292 292 291 291 292 294 294 295 295 294 294 293 293 292 291 288 287 287 286 285 283 281 280 279 279 281 281 280 279 279 278 278 278 276 275 274 273 272
288 289 290 291 292 292 292 292 291 292 293 294 294 295 295 295 295 294 293 292 290 289 287 287 285 284 283 281 281 281 281 282 281 280 280 279 279 279 278 276 275 273 272
290 291 292 292 293 293 293 293 292 292 293 293 293 294 295 295 295 294 293 292 292 290 289 288 286 284 283 283 284 283 282 283 282 281 280 280 280 279 278 277 276 275 273
Height
5784 5782 5781 5780 5778 5777 5775 5774 5773 5771 5770 5769 5768 5767 5766 5766 5765 5765 5765 5765 5765 5766 5766 5766 5766 5766 5767 5767 5768 5768 5769 5769 5770 5771 5772 5772 5773 5774 5775 5775 5776 5777 5778
5778 5777 5776 5774 5772 5771 5769 5768 5766 5765 5763 5762 5761 5760 5760 5759 5758 5758 5758 5758 5758 5759 5759 5759 5760 5760 5760 5761 5761 5762 5762 5763 5764 5765 5765 5766 5767 5768 5769 5770 5770 5771 5772
5773 5771 5770 5768 5767 5765 5763 5761 5760 5758 5757 5755 5754 5753 5753 5752 5752 5751 5751 5751 5751 5752 5752 5752 5752 5753 5754 5754 5755 5755 5756 5756 5757 5758 5758 5759 5760 5761 5762 5763 5764 5764 5765
5766 5765 5764 5762 5760 5758 5756 5754 5753 5751 5750 5748 5747 5746 5745 5745 5744 5744 5744 5744 5744 5744 5744 5745 5745 5746 5746 5747 5747 5748 5749 5749 5750 5751 5751 5752 5753 5754 5755 5756 5757 5757 5758
5760 5758 5757 5755 5753 5751 5749 5747 5745 5744 5742 5740 5739 5738 5738 5737 5737 5736 5736 5736 5736 5737 5737 5737 5737 5738 5739 5739 5740 5741 5741 5742 5743 5743 5744 5745 5745 5747 5748 5749 5749 5750 5750
5753 5751 5749 5747 5746 5744 5742 5740 5738 5736 5734 5733 5731 5730 5730 5729 5729 5728 5728 5728 5729 5729 5729 5729 5730 5730 5731 5731 5732 5733 5734 5734 5735 5736 5736 5737 5738 5739 5739 5740 5741 5742 5743
5746 5744 5742 5740 5738 5736 5734 5732 5730 5728 5726 5725 5723 5722 5722 5721 5721 5720 5720 5720 5720 5721 5721 5721 5722 5722 5722 5723 5724 5724 5725 5726 5727 5728 5728 5729 5730 5731 5731 5732 5732 5733 5734
5738 5736 5734 5733 5731 5729 5727 5725 5723 5721 5718 5717 5715 5714 5713 5713 5712 5712 5712 5712 5712 5713 5713 5713 5713 5714 5714 5715 5715 5716 5716 5717 5718 5719 5720 5720 5721 5721 5722 5723 5723 5724 5725
5730 5728 5727 5725 5723 5722 5720 5718 5716 5713 5711 5709 5707 5706 5705 5705 5704 5704 5703 5704 5704 5704 5704 5705 5705 5705 5705 5705 5706 5707 5708 5708 5709 5709 5710 5711 5711 5712 5713 5713 5714 5715 5716
5722 5720 5719 5717 5716 5714 5712 5710 5708 5706 5703 5701 5699 5698 5697 5697 5696 5695 5695 5695 5695 5695 5695 5695 5695 5696 5696 5696 5697 5697 5698 5699 5699 5700 5700 5701 5702 5702 5703 5704 5705 5705 5706
5714 5713 5711 5710 5708 5706 5705 5703 5701 5698 5696 5694 5692 5690 5689 5689 5688 5687 5686 5686 5686 5686 5686 5686 5686 5686 5686 5686 5687 5688 5688 5689 5689 5690 5691 5691 5692 5692 5693 5694 5695 5696 5697
5706 5705 5703 5702 5701 5699 5697 5695 5693 5691 5689 5686 5685 5683 5682 5680 5679 5678 5677 5677 5676 5676 5676 5676 5676 5676 5676 5677 5677 5678 5678 5679 5679 5680 5681 5681 5681 5682 5683 5683 5684 5685 5686
5698 5697 5696 5695 5693 5691 5689 5687 5685 5683 5681 5679 5677 5675 5674 5672 5670 5669 5668 5667 5666 5666 5666 5665 5665 5666 5666 5666 5667 5668 5668 5668 5669 5669 5670 5670 5671 5671 5672 5672 5673 5674 5675
5691 5690 5689 5687 5686 5684 5682 5680 5677 5675 5673 5671 5669 5667 5665 5663 5661 5660 5659 5658 5657 5656 5655 5655 5655 5655 5656 5656 5657 5657 5658 5658 5658 5659 5659 5659 5659 5660 5661 5662 5662 5663 5664
5684 5683 5682 5680 5678 5676 5674 5672 5670 5668 5665 5663 5661 5659 5657 5655 5653 5651 5650 5648 5647 5646 5645 5645 5645 5645 5646 5646 5646 5647 5647 5647 5647 5647 5648 5648 5648 5649 5650 5650 5651 5652 5653
5677 5676 5675 5673 5671 5669 5667 5665 5662 5660 5657 5655 5653 5651 5649 5647 5645 5642 5640 5639 5637 5636 5636 5635 5635 5636 5636 5636 5636 5636 5636 5637 5637 5637 5636 5636 5637 5637 5638 5639 5640 5641 5642
5671 5669 5667 5666 5664 5662 5660 5658 5655 5653 5650 5647 5645 5643 5641 5638 5636 5634 5632 5631 5629 5628 5627 5627 5627 5627 5627 5627 5626 5626 5626 5626 5626 5626 5626 5625 5626 5626 5627 5628 5628 5629 5630
5664 5662 5660 5658 5657 5655 5652 5650 5648 5645 5643 5640 5637 5635 5632 5630 5628 5626 5624 5623 5621 5620 5619 5618 5617 5617 5617 5617 5617 5616 5616 5615 5615 5615 5615 5615 5615 5615 5615 5616 5617 5618 5619
5657 5655 5653 5651 5649 5647 5645 5642 5640 5637 5635 5632 5630 5627 5625 5622 5620 5619 5617 5615 5613 5612 5611 5609 5609 5608 5607 5607 5606 5606 5605 5605 5604 5604 5604 5604 5603 5604 5604 5604 5605 5606 5607
5649 5647 5645 5644 5642 5639 5637 5635 5632 5630 5627 5624 5622 5620 5617 5615 5613 5611 5609 5607 5605 5604 5602 5601 5600 5599 5598 5597 5597 5596 5595 5595 5594 5594 5593 5593 5592 5592 5593 5593 5594 5594 5595
5642 5640 5638 5636 5634 5632 5630 5627 5625 5622 5620 5617 5614 5612 5609 5607 5605 5603 5601 5599 5597 5596 5594 5593 5591 5590 5589 5588 5587 5587 5586 5585 5584 5583 5583 5582 5582 5581 5582 5582 5582 5583 5583
5634 5632 5630 5628 5626 5624 5622 5619 5617 5614 5612 5609 5607 5604 5602 5599 5597 5595 5593 5591 5589 5587 5586 5584 5583 5581 5580 5579 5578 5577 5576 5575 5574 5574 5573 5572 5571 5571 5571 5571 5571 5571 5571
5626 5624 5622 5620 5618 5615 5613 5611 5609 5606 5604 5601 5598 5596 5594 5591 5589 5587 5585 5583 5581 5579 5577 5575 5574 5572 5571 5570 5569 5568 5567 5566 5565 5564 5563 5562 5561 5561 5560 5560 5559 5560 5560
5618 5616 5614 5611 5609 5607 5604 5602 5600 5597 5595 5592 5590 5587 5585 5582 5580 5578 5576 5574 5572 5570 5568 5566 5564 5563 5561 5560 5559 5558 5557 5556 5555 5554 5553 5552 5551 5550 5549 5548 5548 5548 5548
5609 5607 5605 5603 5600 5598 5596 5593 5591 5589 5586 5584 5581 5579 5576 5574 5571 5569 5567 5564 5562 5560 5559 5557 5555 5553 5552 5551 5550 5549 5548 5546 5545 5544 5543 5541 5540 5539 5538 5537 5537 5537 5536
5600 5598 5596 5594 5592 5589 5587 5584 5582 5579 5577 5574 5572 5570 5567 5565 5562 5560 5558 5555 5553 5551 5549 5548 5546 5544 5543 5541 5540 5539 5538 5536 5535 5533 5532 5531 5530 5528 5527 5526 5526 5525 5525